Wind_Speed
91 90 90 89 89 88 86 85 84 84 85 86 86 85 83 80 81 79 73 73 69 61 59 58 57 61 63 65 66 65 64 62 60 60 56 48 48 49 49 51 51 48 45 41 39 38 37 37 38 38 37 39 39 33 31 32 29 29 30 30 30 29 31 29 26 24 22 18 19 19 18 18 16 15 15 15 15 14 14 13 11 10 9 10 12 14 16 17
93 93 93 92 91 90 89 87 86 84 84 84 86 85 84 82 81 82 77 74 74 67 61 59 57 59 63 66 67 67 65 64 63 62 57 51 49 51 52 53 53 50 47 44 41 39 39 39 38 37 38 40 41 36 32 34 33 30 30 31 31 33 31 27 25 25 22 20 20 19 19 19 17 16 16 16 16 15 15 13 12 10 9 10 11 13 16 17
96 96 95 95 94 93 91 89 87 86 84 83 85 85 85 83 81 81 80 75 75 73 67 61 59 59 62 67 68 69 68 67 66 63 60 54 52 53 54 53 53 51 48 46 43 41 39 40 40 38 40 41 42 41 35 33 36 34 30 32 35 34 30 27 27 25 22 21 21 20 20 19 18 17 17 17 17 16 15 14 12 11 10 11 11 13 15 17
97 98 98 97 97 95 94 92 89 87 85 82 83 84 84 83 82 80 80 79 75 76 72 65 62 62 62 66 69 70 70 70 67 64 62 57 55 55 54 53 53 52 49 48 45 43 40 39 42 41 41 43 43 44 39 33 35 36 33 35 37 34 30 29 28 24 22 22 21 21 21 20 19 19 18 18 18 17 15 14 13 13 12 11 12 13 15 17
98 99 100 99 99 98 96 94 91 88 86 84 81 82 82 82 82 80 79 81 79 77 74 69 66 62 62 66 69 71 72 72 68 64 64 59 57 57 54 52 52 52 50 49 47 44 42 40 42 42 41 42 44 44 42 36 34 35 36 37 35 33 31 30 28 25 23 22 22 22 21 20 20 20 19 19 19 17 15 15 15 14 13 12 13 14 15 15
99 100 100 101 101 100 98 96 93 90 88 85 82 80 80 80 81 81 78 79 80 79 73 70 69 63 61 66 69 72 73 72 68 66 65 59 57 58 57 53 51 53 51 50 49 46 44 41 42 42 40 41 43 43 42 39 35 35 38 36 34 33 32 31 29 27 24 23 23 22 22 21 22 22 20 20 20 17 16 16 16 15 14 13 13 13 13 14
95 101 102 101 102 102 100 98 95 92 89 87 83 79 77 76 77 80 79 77 79 81 74 66 69 67 61 65 69 71 73 72 67 66 66 60 59 60 58 57 54 54 53 52 51 47 45 42 42 42 40 40 41 43 42 40 37 36 38 37 35 35 33 32 30 28 26 25 25 23 23 23 23 22 21 22 20 18 18 17 17 16 15 14 13 12 12 13
86 96 103 103 102 102 101 100 97 94 91 88 85 80 76 75 75 76 78 78 77 81 78 65 65 69 65 65 70 71 71 72 69 66 66 63 61 61 60 59 58 55 54 54 51 49 47 44 43 43 41 40 39 42 42 42 40 38 40 39 38 37 34 33 31 29 28 27 26 25 24 24 23 22 23 24 20 19 19 19 18 17 16 15 13 12 13 13
81 88 100 105 103 102 101 101 99 95 93 89 86 82 78 76 75 74 74 75 75 77 82 72 62 66 67 65 70 73 71 72 71 66 67 65 62 63 63 62 60 57 55 55 53 51 50 47 44 44 43 40 38 41 43 46 45 41 41 42 41 39 37 35 33 31 29 29 28 27 26 25 23 23 25 24 21 21 21 21 20 19 18 17 15 14 14 14
80 83 92 103 105 102 101 101 99 97 94 90 88 83 79 77 77 76 72 72 72 74 81 81 69 65 67 67 69 72 71 71 70 67 66 68 64 63 65 65 62 59 56 54 53 52 51 49 46 45 44 41 40 41 44 48 49 44 40 42 43 42 40 38 36 33 30 30 30 28 27 25 23 24 25 24 22 23 23 23 22 20 19 18 17 16 15 15
76 80 86 97 105 104 100 100 99 97 95 91 89 84 79 77 77 78 75 71 70 71 76 83 80 72 68 67 67 69 71 71 70 68 68 69 68 65 65 66 64 61 58 53 51 51 50 51 48 44 43 43 42 42 44 47 49 47 42 40 43 44 44 41 38 37 33 31 30 29 28 26 24 22 24 27 26 25 25 24 23 21 20 19 18 17 16 16
71 76 81 91 102 104 100 99 100 97 95 92 89 85 80 77 77 78 77 72 70 70 70 77 83 81 76 71 67 66 69 72 71 70 70 71 71 69 67 66 65 63 60 55 52 51 51 50 49 46 44 43 44 44 45 46 47 48 46 44 44 44 43 42 41 39 36 33 31 30 30 27 24 22 27 31 28 26 26 25 24 22 21 20 19 19 18 17
66 70 77 86 97 104 99 96 98 97 95 93 89 86 81 77 76 78 78 74 70 70 69 74 81 84 85 79 70 66 67 70 73 72 71 72 73 72 70 67 66 64 61 58 54 53 52 51 50 49 46 44 44 46 46 46 46 47 48 48 47 46 43 43 43 39 37 36 34 33 31 26 25 27 32 33 28 26 27 26 25 23 22 21 21 20 20 19
63 66 73 81 91 101 99 92 95 97 95 93 90 85 82 77 75 77 79 75 71 70 69 73 79 82 84 82 75 69 67 70 73 73 73 73 74 73 71 69 67 65 63 61 57 55 54 53 53 52 50 48 45 46 46 45 46 46 48 50 50 50 47 45 44 39 38 39 37 37 31 25 28 31 32 32 27 27 28 28 27 25 24 22 22 22 21 21
60 63 67 74 84 96 98 90 92 96 94 93 90 85 82 78 74 75 79 77 73 73 71 70 76 80 81 82 79 73 70 72 72 73 74 73 73 73 71 70 68 65 64 61 58 57 56 55 55 55 54 51 47 47 47 45 46 46 47 49 51 51 50 47 44 40 40 41 38 41 35 27 30 32 30 31 29 28 29 29 29 27 26 24 23 23 22 22
57 60 63 67 75 88 96 90 89 94 93 92 90 85 82 77 73 74 78 80 76 74 72 70 72 75 80 82 80 76 73 72 72 72 74 73 72 72 71 70 68 65 63 61 60 59 57 57 57 57 56 53 49 48 48 47 47 47 46 48 49 51 52 48 46 43 42 42 40 42 38 30 32 31 30 32 30 29 30 31 31 29 27 26 24 24 23 22
54 59 61 63 69 81 92 90 87 92 93 91 89 85 83 77 72 74 77 80 78 76 73 71 69 64 74 85 83 80 74 69 71 73 73 73 72 72 71 70 68 66 64 62 61 60 59 59 58 57 58 55 51 48 49 49 49 49 48 48 49 49 50 48 46 45 44 43 41 42 39 33 32 32 31 33 31 30 31 32 32 31 29 27 26 25 24 24
53 57 59 61 66 72 83 88 86 90 92 90 89 85 82 77 73 76 81 81 79 79 74 74 74 60 64 86 87 81 76 68 70 73 73 74 73 72 72 71 70 68 66 63 62 62 61 60 59 58 58 56 53 52 53 51 49 50 49 46 46 45 46 47 46 45 44 42 41 41 39 35 34 34 34 34 32 31 32 33 33 32 30 28 27 26 26 25
51 56 57 58 62 63 72 84 86 87 91 89 88 86 83 79 77 80 84 84 83 83 79 79 83 66 60 80 85 80 79 72 70 73 75 75 74 73 73 73 72 70 69 67 64 64 62 61 61 61 59 57 56 56 55 51 49 50 47 45 44 43 45 47 47 46 45 44 41 40 39 36 36 35 36 36 34 33 32 33 34 33 31 30 28 28 27 26
52 55 56 56 58 58 64 77 84 86 90 89 87 86 85 83 83 86 87 88 87 86 83 82 84 72 65 77 82 80 82 77 73 74 74 75 75 74 74 74 73 73 72 69 66 65 63 63 63 61 58 57 57 57 55 52 51 49 45 45 46 44 44 46 47 47 46 46 43 41 40 38 37 37 37 38 35 33 33 32 32 34 33 31 30 29 28 27
53 53 54 55 56 57 59 69 78 83 87 87 85 85 85 85 84 85 86 88 89 87 84 82 82 78 76 81 81 79 81 79 75 73 72 75 76 75 75 74 74 75 74 71 69 66 65 65 64 60 57 57 58 58 56 54 52 47 43 46 47 45 43 43 45 45 46 48 45 43 43 40 39 39 38 40 38 34 33 32 31 33 34 33 32 30 29 29
53 54 54 54 55 57 58 62 68 76 82 83 82 82 83 83 81 78 78 83 88 87 86 83 80 78 78 79 77 78 80 79 76 74 73 76 77 77 76 75 75 74 73 73 73 70 69 67 64 61 58 59 61 62 60 56 53 47 45 48 48 47 46 42 40 42 45 47 45 44 45 42 40 41 40 41 41 36 34 33 31 32 35 35 33 31 31 31
53 55 54 53 56 58 58 60 63 69 76 78 77 80 82 82 84 83 78 79 85 87 87 83 78 73 72 74 74 76 79 78 76 76 75 74 76 77 77 76 75 74 74 75 75 73 72 69 65 63 61 61 63 64 63 60 58 52 47 50 50 49 47 41 40 41 42 45 44 44 47 44 40 41 43 43 44 40 36 35 34 33 33 33 33 33 33 32
53 54 51 51 55 59 59 60 63 66 70 72 72 76 81 82 88 93 83 78 83 86 84 81 78 72 70 76 77 76 76 75 74 76 74 71 73 77 77 76 75 75 76 74 72 71 71 68 66 65 63 63 63 64 64 63 61 57 51 49 50 50 46 42 42 42 40 43 43 42 46 46 40 39 40 43 47 45 40 38 36 35 34 32 34 35 35 34
52 52 49 48 51 55 59 60 63 66 67 70 73 75 80 83 91 96 85 79 84 84 81 80 79 70 65 74 80 79 77 77 76 76 74 69 71 74 75 77 77 76 75 72 71 71 70 68 67 65 64 64 64 64 64 62 61 59 56 53 51 50 46 43 45 44 42 43 44 41 42 44 41 39 38 38 44 45 43 41 38 37 37 35 34 34 35 35
50 50 47 46 47 50 56 59 61 65 67 70 74 76 79 84 93 97 88 82 85 85 83 83 83 73 61 65 72 72 72 75 78 80 74 67 69 71 72 77 79 76 74 72 70 70 70 69 67 66 65 65 66 64 62 60 60 60 59 57 55 52 47 44 46 47 45 45 44 40 40 42 40 39 39 38 40 42 41 41 40 39 40 38 36 34 34 36
46 49 48 45 48 51 55 58 59 63 67 68 71 74 78 85 96 99 91 85 88 89 88 87 85 78 65 59 63 66 66 68 75 83 77 67 69 72 73 76 76 75 75 73 72 72 72 70 68 67 66 67 66 62 61 60 59 60 59 57 55 51 47 46 48 49 48 48 46 41 41 43 37 34 37 38 39 41 41 40 40 40 41 41 39 35 34 36
44 48 47 43 47 52 53 55 56 60 65 66 67 70 75 85 97 100 92 87 91 92 90 90 87 81 70 61 64 69 66 64 72 81 77 68 68 72 73 73 71 71 74 74 74 74 72 71 71 69 67 68 65 60 61 59 58 60 58 54 51 48 46 47 49 50 50 50 48 43 43 44 37 31 32 35 37 40 41 39 40 39 40 41 40 38 35 35
44 46 46 41 42 47 50 51 53 56 60 63 65 67 71 82 92 94 88 87 91 92 91 91 87 81 72 65 68 69 65 64 70 75 73 68 69 71 72 71 68 69 72 73 73 73 73 72 71 68 66 67 63 59 60 57 55 59 56 49 48 47 46 47 48 50 51 52 50 45 44 45 39 32 30 32 33 34 34 34 36 38 38 40 41 39 37 36
43 44 44 40 39 43 47 48 49 51 54 58 63 67 70 77 81 80 81 88 91 88 91 91 86 84 76 68 68 67 65 68 71 71 72 70 69 70 69 68 68 69 70 71 72 72 72 71 68 65 62 62 59 57 56 53 53 57 51 45 47 48 48 48 49 51 51 52 51 46 45 46 41 34 30 31 31 29 28 28 29 31 33 36 40 41 40 38
41 42 43 41 40 42 45 46 47 48 49 53 59 66 69 72 74 66 69 86 92 84 88 91 85 83 79 71 69 65 63 69 75 75 75 72 70 71 72 72 72 70 69 69 71 72 72 71 69 64 60 59 59 57 54 53 54 55 50 46 47 48 49 50 51 52 53 53 52 48 47 48 43 34 29 28 29 30 30 31 30 29 29 30 34 39 41 41
40 41 43 43 42 43 45 46 46 45 47 49 54 62 67 70 75 64 59 82 93 83 84 88 83 82 78 71 70 68 63 66 75 79 77 74 73 73 72 75 77 74 70 68 68 71 72 71 70 66 62 61 61 57 54 55 57 57 53 50 51 51 51 52 52 54 54 54 53 50 47 47 43 37 31 27 28 32 32 33 34 34 33 32 32 34 37 40
40 42 43 43 43 43 45 45 45 45 46 47 50 57 63 69 80 75 67 77 87 84 82 82 81 81 76 68 66 68 64 63 72 79 79 75 72 72 71 71 73 73 70 68 67 70 72 72 72 69 67 66 63 58 55 58 60 61 59 56 55 56 56 55 55 55 54 54 54 50 46 45 43 41 37 30 28 32 31 31 33 34 36 36 35 34 34 36
42 42 43 44 44 44 44 43 44 44 44 45 45 51 58 67 81 87 82 77 76 80 81 78 81 82 75 67 62 63 63 61 67 74 79 79 72 71 73 73 71 70 69 68 68 70 72 75 75 73 71 69 65 61 59 58 57 58 59 57 56 57 54 52 52 52 51 51 52 50 47 45 43 43 40 32 29 32 32 31 31 32 34 36 37 37 36 36
43 43 43 44 44 44 44 43 43 42 43 43 42 46 53 63 76 85 87 79 68 73 78 78 82 84 79 70 62 62 63 62 62 65 74 81 76 71 73 75 73 71 71 70 68 67 69 71 72 71 72 69 66 64 63 61 58 58 58 57 56 56 53 51 51 51 50 50 52 52 50 47 45 44 41 34 30 30 31 30 30 31 33 35 37 38 37 38
43 43 44 44 45 45 45 44 43 42 42 42 42 44 50 59 68 75 85 80 61 62 75 78 80 83 79 73 67 64 63 62 63 62 65 75 79 75 72 72 71 70 69 68 66 65 65 65 65 66 68 67 66 65 64 62 62 62 62 60 57 55 54 53 52 51 50 52 53 53 51 48 46 46 43 36 30 28 29 30 29 29 31 33 35 36 38 38
43 44 44 45 45 46 45 44 44 42 41 42 43 43 46 54 61 66 80 82 58 52 67 74 77 80 74 70 68 63 60 60 61 62 63 67 75 77 74 71 70 69 66 64 64 64 63 62 63 64 66 67 68 68 64 61 61 63 62 60 55 54 54 52 50 49 50 53 54 53 52 49 47 47 43 36 30 28 28 30 29 29 30 31 32 34 37 38
44 44 45 45 45 46 45 44 44 43 42 42 43 43 44 50 54 58 74 83 66 52 57 62 69 76 72 67 64 58 58 60 61 63 63 64 70 76 75 71 69 68 67 64 64 64 62 62 62 64 67 67 69 69 67 66 65 64 62 59 55 54 55 53 52 53 54 55 56 55 54 52 48 46 42 36 32 30 27 27 28 28 28 29 31 33 35 37
44 45 45 46 46 45 44 43 43 43 44 44 43 44 44 44 48 53 66 80 76 62 55 52 56 68 72 67 60 56 56 58 61 64 64 63 66 71 72 70 66 66 67 67 66 64 62 63 63 63 66 67 68 68 68 69 69 67 65 63 60 59 58 57 55 55 56 56 56 56 56 53 48 45 41 37 34 30 27 26 26 28 28 28 30 31 33 35
44 44 44 44 45 45 44 43 43 44 44 44 43 43 44 43 43 49 60 74 81 73 61 52 50 60 68 64 55 53 55 56 58 62 65 63 64 66 70 70 67 64 67 69 69 65 61 62 62 63 65 67 68 68 66 66 66 65 65 65 64 63 63 62 59 57 56 56 54 54 55 52 48 44 39 35 34 32 30 29 27 27 28 28 29 31 32 33
43 43 43 43 44 44 44 44 44 43 42 42 41 42 44 45 43 46 53 64 76 80 74 61 51 54 64 62 52 47 50 54 55 58 62 63 63 66 69 71 69 66 68 71 72 68 64 62 62 63 64 64 65 64 63 63 62 60 61 61 62 61 61 60 59 55 53 52 50 50 54 53 49 46 39 34 35 35 34 32 30 30 30 30 30 30 31 32
43 43 42 43 43 43 43 42 42 42 41 40 39 40 42 44 44 45 47 54 66 75 79 73 59 53 60 61 53 45 45 51 53 55 60 62 62 64 67 70 71 68 67 68 69 68 66 63 62 63 63 62 62 61 60 61 61 61 62 62 61 59 58 56 55 52 50 50 50 52 56 55 51 49 44 37 37 39 37 35 32 31 31 31 30 30 30 31
43 43 43 43 44 44 44 42 41 41 40 37 36 38 40 42 46 49 47 48 57 65 74 79 71 58 56 56 52 48 48 52 53 51 54 59 61 63 65 68 71 71 70 69 68 68 67 67 65 64 63 63 62 59 58 58 61 63 63 62 62 60 58 55 54 53 53 53 53 55 59 57 53 50 43 38 39 41 39 36 32 30 30 31 32 32 32 32
44 44 44 43 43 44 44 43 41 40 38 36 36 37 38 40 43 49 50 48 51 58 69 79 77 65 55 51 50 48 49 55 57 53 53 58 61 63 63 66 69 71 72 70 67 66 67 69 68 65 64 65 64 62 60 59 60 61 60 59 59 59 58 57 57 58 59 58 56 58 60 57 54 49 41 37 40 40 38 37 34 32 32 32 33 35 35 36
44 45 45 43 42 43 43 42 41 40 37 36 36 35 36 38 40 43 47 49 49 52 64 78 80 71 59 51 49 47 46 52 59 60 58 57 60 62 62 63 65 66 66 67 67 66 68 69 68 68 68 68 66 63 60 59 60 61 61 60 60 60 60 60 59 61 62 60 59 61 60 56 53 49 42 39 40 38 37 38 38 37 36 35 36 37 39 39
43 44 45 45 43 42 43 43 43 43 40 37 36 35 35 36 37 39 42 49 51 49 59 74 80 76 65 54 51 50 45 46 53 59 62 60 57 59 60 61 61 61 63 65 68 70 69 68 68 68 67 63 61 58 56 56 59 61 61 62 63 63 62 61 61 61 60 57 58 57 54 51 50 49 45 42 41 38 36 39 41 41 40 40 40 40 41 41
43 43 43 44 44 42 42 42 44 44 42 40 38 36 35 33 34 37 40 48 54 50 54 68 75 77 69 56 51 51 46 43 47 52 60 63 58 56 58 59 60 61 62 64 67 70 71 69 66 65 64 63 60 56 54 54 55 55 54 55 56 55 54 55 55 54 50 51 54 50 45 46 48 46 46 45 43 40 38 40 42 42 41 41 41 42 43 44
44 43 42 43 44 43 42 41 41 42 42 42 40 38 37 35 34 36 38 46 54 52 53 63 71 75 73 58 49 51 48 45 46 48 57 64 61 57 57 58 60 61 61 62 66 70 71 70 67 65 65 64 61 58 56 55 54 53 51 50 49 47 47 47 48 48 47 51 54 47 42 46 47 44 43 45 45 43 39 39 41 41 41 43 43 45 46 47
45 44 43 44 44 44 43 41 41 41 41 43 43 41 40 38 36 35 35 43 54 55 53 61 67 72 76 64 50 50 49 45 46 48 53 61 62 58 56 57 59 61 61 61 63 66 67 68 69 68 66 63 61 60 58 56 54 54 53 52 50 47 47 48 49 48 49 53 54 48 47 48 45 41 40 41 44 45 41 38 38 38 40 43 46 48 48 48
47 46 45 45 45 44 44 43 43 43 42 42 44 43 43 41 37 35 35 42 53 57 53 58 64 67 73 71 58 49 46 41 42 44 46 53 59 58 55 55 56 58 60 60 62 63 64 67 68 68 68 65 62 60 59 57 56 54 54 53 51 50 49 50 49 47 50 52 49 47 49 47 40 37 37 37 41 45 43 38 37 38 41 43 46 48 49 50
49 48 47 47 47 46 45 45 44 44 44 45 46 44 43 43 39 36 36 39 48 57 57 59 62 63 71 77 63 46 40 39 40 42 43 46 51 52 52 54 55 58 60 60 61 62 63 66 66 67 70 69 64 62 61 58 56 56 56 55 54 52 50 47 44 45 48 46 41 43 45 40 33 32 33 36 41 43 42 41 42 43 44 44 45 46 47 48
50 50 49 49 48 47 46 46 46 45 44 44 45 45 44 42 39 39 40 39 43 54 59 60 61 61 69 76 65 47 41 40 38 41 44 45 47 47 48 50 52 55 58 60 60 60 61 63 66 68 70 70 69 68 65 61 62 62 58 53 51 50 49 47 45 44 43 41 39 40 37 31 30 31 31 34 39 42 43 46 48 47 45 44 43 43 44 45
Wind_Direction
223 223 224 224 224 225 226 226 226 226 225 226 226 225 225 221 214 211 210 209 208 210 215 218 218 217 216 216 215 215 214 212 209 207 206 210 213 220 225 225 223 219 217 217 216 214 212 212 214 217 217 211 210 209 210 214 217 219 218 217 215 214 216 213 213 220 219 219 227 230 235 239 237 235 235 236 233 230 230 226 221 217 215 220 224 229 229 230
223 222 223 223 223 224 224 225 225 225 225 225 225 225 225 223 219 213 210 209 208 208 213 218 219 218 216 215 215 215 214 213 210 206 205 208 212 219 224 224 223 220 218 217 216 215 213 214 216 219 218 212 209 207 211 216 215 219 221 220 219 218 217 213 214 219 218 222 227 229 233 237 237 235 234 235 233 231 231 229 223 218 216 221 227 231 231 231
223 222 222 222 222 222 223 223 224 224 224 224 224 224 224 224 222 217 212 208 209 208 209 214 218 219 216 214 215 215 214 213 210 206 206 209 212 219 223 222 222 221 219 218 216 215 214 215 217 219 220 216 212 211 214 218 216 218 221 223 223 220 219 217 217 217 218 224 227 230 233 236 237 236 235 234 233 232 231 230 226 220 218 220 225 230 231 230
224 222 221 221 221 221 222 222 222 223 223 223 224 224 224 223 223 221 215 210 209 209 208 210 215 219 217 213 214 214 214 214 210 206 208 210 212 218 221 221 222 221 221 220 218 217 215 214 217 219 222 221 218 215 215 215 216 217 220 224 223 221 220 220 220 218 219 225 229 231 233 235 237 237 236 235 235 233 233 233 229 224 221 220 222 227 228 229
225 223 221 220 221 221 221 221 221 222 222 222 223 223 223 223 222 222 219 213 210 209 209 209 213 217 218 214 213 214 214 214 210 207 209 211 215 218 221 222 222 222 222 221 219 217 216 214 217 221 223 224 222 219 217 214 215 218 220 225 225 222 223 222 221 221 221 225 230 233 233 235 237 238 237 237 237 235 234 235 234 231 227 225 225 226 227 228
225 224 222 220 220 220 220 220 221 221 221 221 221 222 221 221 222 221 220 217 213 209 207 210 212 214 217 215 213 214 215 214 210 208 209 211 216 219 221 223 222 223 222 221 220 218 217 216 218 222 225 226 225 223 221 216 216 220 222 225 227 225 225 224 222 222 223 226 230 233 234 234 237 238 238 238 238 236 235 235 237 236 231 230 231 233 231 230
227 224 223 221 220 220 219 219 220 220 220 220 220 220 219 219 220 220 219 218 215 210 206 208 212 212 215 216 215 215 216 214 211 210 210 211 216 217 220 223 221 223 222 221 221 219 217 218 220 223 226 228 226 225 222 217 219 223 223 224 227 227 226 224 224 224 225 227 229 232 234 233 235 238 238 239 239 236 237 237 238 237 234 233 234 238 237 232
228 226 224 222 220 219 219 218 219 219 219 219 219 218 217 216 218 219 218 218 216 212 207 207 212 213 214 216 217 218 217 215 212 210 211 212 215 217 219 221 221 222 222 221 221 220 218 218 220 222 227 230 228 226 223 219 221 224 224 225 228 228 227 226 225 227 228 227 227 229 233 232 233 236 238 239 238 236 237 236 236 236 234 234 235 237 240 237
230 227 224 222 220 219 218 218 218 218 218 218 218 217 215 214 215 217 217 217 216 214 209 209 211 213 214 214 217 219 218 216 213 210 211 213 214 217 218 220 221 222 222 222 221 221 218 217 219 221 225 230 231 228 224 223 225 227 225 226 230 230 229 227 225 227 230 228 226 227 231 232 232 235 238 240 238 235 235 235 235 235 233 232 232 235 239 242
230 229 225 222 220 219 218 218 217 217 217 217 217 216 214 212 212 214 216 215 215 214 211 210 211 213 214 213 215 219 217 216 215 211 213 214 213 215 219 219 220 221 221 222 222 222 220 217 219 221 222 227 231 230 226 225 226 230 228 224 229 231 229 228 226 226 228 227 225 226 230 232 233 234 239 242 239 236 235 235 235 235 234 232 231 233 236 240
230 229 226 222 219 218 217 217 216 216 216 216 216 215 214 212 210 211 214 214 213 214 213 212 213 215 215 212 214 218 217 216 215 212 213 215 215 215 217 219 219 221 222 223 225 223 221 219 218 222 225 227 230 231 229 227 227 230 231 226 228 232 230 229 229 228 228 227 226 228 230 232 234 235 241 244 239 236 236 236 237 236 236 235 233 233 235 238
230 227 225 221 218 217 217 217 216 215 214 214 215 214 213 212 210 208 212 214 212 214 213 212 215 218 218 215 214 217 217 216 216 214 212 214 216 216 217 219 220 221 223 225 226 225 222 220 218 220 224 226 229 232 231 230 229 229 231 229 229 233 231 229 231 230 230 231 229 231 232 232 235 234 237 239 237 236 236 237 238 237 238 236 235 234 235 236
229 226 222 219 217 216 215 216 215 214 214 213 214 214 212 211 210 207 209 213 213 213 213 211 214 218 220 218 216 218 218 216 216 215 213 214 216 217 218 220 221 222 223 224 225 224 222 220 219 218 222 225 228 232 232 231 232 231 230 230 230 234 232 229 230 229 231 233 231 233 233 230 234 232 233 237 235 235 236 237 238 238 238 237 236 236 236 236
226 223 219 216 215 214 214 215 215 213 213 212 212 213 212 211 210 207 206 210 213 213 213 211 213 217 219 219 217 220 219 214 214 214 212 214 216 218 219 220 222 223 222 223 223 223 222 220 218 217 220 224 226 231 233 231 233 233 231 230 230 232 232 230 230 229 232 233 231 235 234 227 233 234 235 239 236 235 236 236 237 237 236 236 236 236 237 237
222 218 214 213 213 212 212 214 214 213 212 212 211 211 212 210 209 206 204 206 210 213 213 212 213 215 217 217 216 219 219 215 213 213 212 213 216 218 219 220 222 223 223 223 223 223 222 220 218 217 218 222 224 229 231 231 232 233 232 232 231 232 232 230 229 230 233 234 234 238 236 227 234 237 236 239 237 234 235 236 236 236 235 235 235 236 237 237
216 211 208 208 210 211 211 213 214 212 212 211 210 210 211 210 209 206 203 205 209 212 214 213 212 215 219 217 215 218 219 216 214 214 214 213 215 217 219 220 221 222 223 223 223 223 222 221 220 218 218 221 223 227 231 231 232 234 234 234 233 232 232 231 231 233 234 236 238 241 238 227 232 237 235 239 239 235 235 236 236 235 235 234 234 236 237 238
209 203 200 200 203 208 211 213 213 212 211 211 210 209 209 209 208 205 202 205 208 211 214 213 209 213 221 218 215 218 219 216 215 215 215 214 214 216 218 219 221 221 222 222 223 223 223 223 222 220 220 221 223 228 231 231 231 233 234 235 235 233 233 233 234 237 237 238 238 239 236 225 227 235 236 239 241 238 237 238 239 236 235 235 234 236 237 238
206 198 195 195 197 203 210 213 213 212 211 211 210 209 209 208 207 203 201 203 206 209 212 212 208 211 221 219 216 218 219 216 216 216 215 214 214 216 217 218 220 221 221 221 222 222 223 223 223 221 221 221 223 227 229 229 231 234 234 237 239 237 236 235 235 238 238 238 237 237 233 223 223 230 235 239 241 239 238 238 241 241 239 238 236 237 237 238
207 198 195 195 196 201 208 212 213 213 211 211 210 209 209 207 206 203 201 203 204 206 209 209 209 211 216 217 216 218 220 218 217 217 215 215 214 215 217 218 219 220 221 221 221 221 222 223 223 222 221 221 223 226 229 232 234 235 234 237 240 238 236 236 237 238 238 238 237 237 233 224 222 228 234 239 240 241 240 238 241 244 243 242 240 239 239 238
204 199 196 195 196 201 207 209 211 212 212 212 211 210 209 207 205 202 200 202 204 204 207 208 210 212 209 212 214 217 219 217 217 219 216 215 215 215 216 217 218 219 220 220 221 221 222 223 224 223 222 222 223 226 229 232 234 236 235 235 238 238 235 236 238 240 241 240 238 239 236 227 225 228 233 239 241 243 245 242 241 244 245 245 244 243 241 240
198 197 196 197 198 202 206 206 207 209 211 212 212 211 211 209 205 200 197 201 204 205 208 209 209 213 213 210 211 213 217 216 216 219 218 215 215 216 217 218 218 219 218 219 220 220 221 222 223 223 223 223 224 226 228 230 233 235 237 236 237 239 237 236 238 241 243 242 239 239 239 233 228 227 230 238 242 242 245 246 244 244 245 246 246 246 246 245
194 194 196 199 199 200 201 203 204 207 209 211 212 211 210 210 204 197 196 199 203 206 209 209 208 213 216 212 210 211 215 216 214 216 217 215 214 215 217 218 219 220 219 220 219 219 220 220 221 222 222 222 224 226 228 230 232 234 236 235 236 239 239 237 237 239 242 243 240 240 240 237 233 230 229 237 243 242 242 247 247 245 245 246 247 247 247 247
193 194 196 199 199 197 197 199 201 205 208 209 211 211 210 208 200 195 196 197 201 206 209 209 207 209 213 211 211 211 213 215 214 215 217 214 213 215 217 218 219 220 220 221 221 221 221 219 219 220 221 222 223 226 228 230 232 233 234 235 235 237 240 239 238 238 241 245 244 242 241 238 236 235 233 237 243 242 241 243 246 246 246 247 249 249 248 248
194 195 195 196 197 197 196 197 198 202 205 206 207 209 209 206 198 197 198 195 198 204 206 206 204 207 210 209 210 213 214 216 215 217 219 217 213 213 216 218 219 220 221 221 222 223 224 222 221 220 220 222 223 226 228 230 233 233 234 235 236 239 240 240 241 240 241 245 246 245 243 239 237 238 237 238 242 244 242 242 244 247 249 249 251 251 250 250
194 195 196 196 196 197 197 197 197 199 201 201 202 203 205 203 199 199 199 197 199 203 203 202 203 206 208 206 210 214 215 216 215 215 220 220 217 214 215 216 219 221 221 221 222 224 224 224 223 223 222 223 224 226 228 230 233 235 236 237 239 241 242 242 243 243 242 244 246 246 245 241 237 238 239 240 242 244 243 242 243 245 247 250 252 252 251 251
193 196 196 195 194 194 196 196 196 198 199 199 200 200 202 201 199 200 200 198 201 203 202 202 203 206 205 204 208 212 213 214 214 214 216 218 217 216 216 216 217 219 220 221 223 224 224 224 224 224 225 225 225 226 228 230 234 236 236 238 241 243 243 243 244 245 244 244 244 245 247 244 237 236 240 241 243 244 243 242 245 246 246 249 252 251 250 250
192 195 195 194 193 194 195 195 196 198 198 198 199 200 201 199 198 200 201 201 203 203 203 204 205 207 207 207 208 211 211 210 211 212 213 214 213 214 217 218 218 218 219 220 222 222 223 224 225 225 226 228 227 227 229 230 233 236 236 238 241 242 242 242 243 245 245 246 246 244 246 246 238 234 240 243 244 245 246 245 247 248 249 250 251 251 250 249
191 194 196 196 194 196 196 196 197 197 197 197 198 201 201 198 199 202 204 206 204 202 203 205 205 207 210 210 210 213 214 209 209 209 211 214 214 212 215 218 219 220 221 221 221 221 221 223 225 225 226 228 228 228 230 230 232 236 237 237 240 241 241 241 243 244 245 247 247 245 247 247 240 234 240 244 245 246 248 249 249 250 252 253 251 249 250 249
191 192 195 195 193 194 194 195 197 196 196 196 198 201 200 197 201 205 208 208 203 200 203 204 204 205 208 210 209 213 213 209 207 207 209 214 215 212 212 214 216 220 223 225 225 223 222 223 225 226 227 229 229 229 231 231 232 235 237 236 238 239 240 241 243 244 246 246 247 246 248 249 244 238 239 243 245 245 248 251 251 251 252 254 251 248 248 248
191 193 195 194 192 193 193 194 196 196 196 196 198 200 199 199 202 209 215 209 200 199 201 202 202 203 207 210 208 210 211 209 206 205 209 213 213 212 211 211 214 217 220 223 225 226 225 225 226 226 227 229 230 232 233 233 233 235 236 236 237 238 238 239 240 243 245 246 246 246 248 250 247 239 235 239 242 244 248 252 254 254 254 254 253 250 248 248
191 194 195 194 193 193 193 196 197 197 197 197 198 199 198 199 202 210 217 208 200 200 200 200 202 203 206 210 209 208 208 210 208 206 210 213 212 211 209 209 213 217 219 220 221 222 224 226 227 227 227 228 229 230 231 233 233 235 236 236 237 238 238 238 239 241 243 245 246 245 245 248 247 241 235 236 240 243 248 254 257 257 256 255 254 252 250 249
190 193 194 194 193 193 194 197 198 199 201 200 201 200 198 200 202 206 212 208 205 204 199 199 202 202 205 210 211 211 209 210 211 209 210 213 214 213 209 208 210 214 217 219 219 220 222 225 227 227 227 228 229 229 229 231 232 234 235 236 238 238 238 238 239 241 243 245 246 245 244 246 248 249 245 239 239 242 245 252 257 258 259 258 257 257 256 252
191 193 194 195 195 195 195 197 200 201 203 204 203 203 202 204 204 203 206 208 209 206 200 199 201 202 205 208 210 213 213 212 213 212 212 214 216 215 212 211 211 213 214 216 218 219 220 222 224 225 226 227 228 228 229 232 233 234 235 236 238 239 239 239 239 241 242 245 247 248 248 247 249 252 251 243 240 243 243 247 254 257 259 260 258 258 259 259
194 194 195 196 197 198 198 200 203 202 204 206 206 206 207 208 207 205 205 207 209 208 203 200 199 201 204 207 209 213 213 211 212 212 212 212 214 214 212 211 211 214 215 216 218 219 219 221 221 222 225 226 228 229 230 233 235 237 238 238 238 240 241 243 243 244 245 247 249 251 251 249 248 250 252 250 245 245 245 246 249 253 257 260 261 260 260 262
197 198 198 198 199 201 200 201 205 205 205 206 205 207 210 210 208 207 207 206 207 209 205 201 200 200 204 208 210 213 213 210 209 210 211 211 212 213 212 211 210 212 214 215 218 220 222 223 223 223 224 225 227 228 229 230 231 233 235 236 237 240 242 243 244 244 245 247 247 248 248 248 248 249 252 253 248 246 248 248 249 251 254 258 262 264 263 262
199 200 201 201 201 202 203 204 206 208 209 208 206 208 211 211 210 210 208 205 206 209 206 203 202 202 205 208 210 213 214 211 210 210 211 212 213 213 214 214 213 213 214 215 217 219 222 224 224 225 227 227 227 228 229 230 232 232 233 234 236 239 240 242 244 245 246 246 246 247 248 248 250 249 250 254 252 248 249 250 251 251 253 257 260 264 265 263
199 201 202 202 203 204 205 206 208 210 211 210 210 211 212 212 212 213 209 204 204 208 208 207 206 205 206 207 207 211 214 213 212 211 212 213 214 215 214 215 215 215 216 216 217 219 221 222 222 223 225 227 228 229 229 230 232 234 236 236 237 238 240 241 244 246 247 247 247 247 248 248 249 249 251 257 259 255 250 251 253 254 256 258 260 262 264 266
200 201 202 203 204 205 207 209 210 212 213 212 212 213 214 214 214 215 211 207 204 204 207 210 210 208 207 205 205 208 212 213 212 212 212 212 214 215 215 215 216 217 217 216 217 219 221 222 223 223 224 225 226 228 227 227 229 232 235 237 237 238 239 240 241 244 246 248 248 248 248 248 248 250 255 260 261 260 256 253 253 255 257 258 260 262 264 266
201 201 202 203 205 206 208 211 212 214 215 215 214 214 215 216 216 215 214 210 206 204 204 205 208 209 207 204 204 207 211 213 212 212 213 213 213 215 215 215 216 217 217 216 216 218 220 222 224 225 225 225 226 226 226 227 229 230 232 233 234 236 238 239 240 243 246 248 249 249 249 247 247 251 257 261 262 262 261 257 254 254 254 256 258 261 263 265
202 202 203 204 205 208 209 211 213 215 217 218 218 218 219 220 218 216 215 212 210 208 205 201 202 206 205 203 203 207 210 212 213 212 213 213 214 215 214 214 215 217 217 217 216 216 218 221 223 224 226 226 227 228 229 231 232 233 235 235 235 236 237 238 239 240 243 245 247 249 249 247 247 250 255 261 263 262 262 261 259 258 257 257 257 259 262 265
202 203 205 205 206 209 211 213 215 217 219 219 218 219 220 221 220 217 215 214 212 212 210 206 200 201 202 202 202 205 209 212 212 213 213 212 213 214 214 214 215 215 215 217 217 216 217 219 221 223 225 227 229 230 230 231 232 234 236 239 240 241 241 242 243 243 245 249 251 253 252 248 248 250 252 256 260 261 264 265 266 266 265 263 262 263 264 265
203 204 206 207 208 210 212 214 216 217 218 218 218 218 220 220 219 217 214 213 213 213 214 212 206 199 198 200 202 204 210 215 214 214 214 212 212 213 213 214 215 215 215 218 220 219 219 220 221 223 225 226 228 230 230 231 232 232 233 235 237 239 241 243 245 246 247 249 250 253 251 246 245 249 250 254 258 261 264 266 267 268 269 269 269 269 268 266
204 205 207 208 209 211 212 213 214 214 215 215 215 216 217 217 216 214 212 211 210 212 214 214 210 201 195 197 201 203 208 214 217 216 214 213 213 213 213 214 216 217 217 219 220 220 220 221 222 223 225 226 227 229 231 231 231 232 234 236 238 239 240 241 242 243 244 244 245 249 249 244 244 248 252 256 259 260 262 263 262 263 265 270 273 273 273 272
205 205 207 209 210 212 214 215 216 216 216 216 214 214 215 215 215 214 213 211 209 211 214 214 212 205 198 198 201 202 204 209 213 217 216 214 214 214 215 216 217 219 219 220 221 220 220 222 223 223 224 225 225 225 227 228 230 232 234 237 239 241 241 240 240 242 243 243 244 247 248 246 247 251 253 256 258 259 262 263 263 264 265 268 272 274 276 276
207 207 208 210 212 213 215 216 216 215 214 213 213 215 217 217 216 215 213 212 211 211 213 214 214 210 205 204 204 202 203 205 209 214 217 216 215 215 215 216 218 220 220 221 221 220 221 224 224 224 223 224 226 227 229 231 233 233 233 234 235 237 238 239 240 241 242 243 245 247 247 247 250 252 252 254 257 259 262 265 267 269 270 271 272 273 275 275
209 209 210 211 213 215 217 217 216 214 211 210 210 212 216 217 217 216 213 211 210 211 212 213 215 213 209 208 208 204 201 203 206 211 216 218 217 216 216 216 217 220 221 221 220 220 222 225 227 227 228 229 232 235 235 236 235 233 232 232 233 234 234 235 236 237 240 244 245 246 247 247 249 253 253 253 256 258 261 264 267 269 271 273 273 273 273 274
210 211 212 214 215 216 217 218 220 219 217 217 216 216 219 220 217 215 212 209 206 207 211 212 214 214 209 206 207 206 202 202 205 210 214 218 219 217 217 217 217 219 221 222 221 221 223 225 227 228 230 232 235 237 237 238 238 237 238 238 238 239 240 240 240 241 242 246 247 246 248 248 248 252 254 253 253 257 261 263 265 267 269 271 272 273 274 274
210 210 212 214 216 218 220 221 222 222 222 222 221 221 222 223 222 218 213 210 205 203 209 212 213 213 209 204 204 204 203 203 205 209 213 217 220 217 216 218 219 219 219 220 222 223 225 227 227 228 230 231 233 234 235 236 238 238 239 241 243 245 246 246 246 245 245 247 248 247 248 248 246 248 253 254 254 256 259 263 264 266 268 270 271 272 273 273
210 210 212 214 216 218 220 221 221 221 222 222 221 221 221 222 226 223 218 212 205 201 206 211 212 212 209 206 204 203 203 203 204 206 210 215 219 219 217 219 220 219 218 218 220 223 225 227 228 229 231 232 233 233 233 234 236 236 237 238 239 239 239 241 243 243 243 245 246 245 246 246 245 247 251 254 256 258 260 263 265 266 267 269 270 271 272 273
212 212 212 214 216 217 218 219 221 221 222 223 222 223 223 223 224 224 222 217 207 201 204 209 212 212 209 209 209 204 201 203 204 204 207 213 217 218 219 221 221 222 221 220 221 223 224 226 228 228 230 232 234 235 235 235 236 236 236 236 236 235 235 237 241 241 242 244 246 246 247 246 244 247 249 250 254 258 260 263 264 263 264 265 267 269 272 273
213 214 214 215 216 217 218 219 221 223 224 225 224 224 225 226 226 227 227 223 213 206 205 208 211 211 210 212 210 201 198 203 204 204 206 210 214 216 218 220 220 222 223 221 222 224 224 225 226 226 227 229 231 234 235 235 235 234 233 233 235 237 239 242 244 243 243 246 246 245 245 244 241 243 245 246 249 255 259 261 261 261 262 263 265 269 271 273
214 215 216 217 217 218 220 220 222 224 225 227 226 225 226 226 228 230 231 228 219 211 208 208 208 210 212 213 208 202 206 209 206 207 207 206 209 215 220 222 221 222 223 223 224 225 225 226 225 224 225 226 227 230 233 234 235 234 233 235 239 242 242 242 241 240 241 242 241 239 239 239 237 237 239 241 245 250 254 257 260 262 264 265 267 269 270 272
Height
5620 5626 5632 5639 5644 5650 5656 5661 5666 5672 5678 5684 5690 5696 5702 5709 5716 5722 5728 5735 5740 5746 5750 5752 5756 5760 5765 5768 5772 5776 5779 5783 5787 5790 5795 5801 5806 5808 5809 5811 5814 5818 5821 5823 5825 5828 5831 5833 5834 5836 5837 5840 5841 5843 5845 5848 5850 5852 5853 5854 5856 5855 5854 5856 5859 5861 5863 5864 5864 5865 5866 5867 5868 5869 5870 5870 5871 5872 5872 5873 5873 5875 5876 5877 5877 5878 5878 5878
5611 5617 5623 5630 5636 5642 5648 5654 5660 5665 5671 5677 5683 5689 5695 5702 5709 5716 5723 5729 5734 5741 5746 5750 5752 5755 5760 5764 5768 5772 5775 5779 5782 5787 5793 5797 5801 5803 5805 5808 5811 5815 5818 5821 5823 5825 5829 5831 5833 5835 5836 5837 5839 5841 5843 5845 5848 5849 5851 5853 5853 5853 5853 5856 5858 5859 5861 5862 5863 5864 5865 5866 5867 5868 5868 5869 5870 5870 5871 5872 5873 5874 5875 5876 5877 5877 5878 5878
5602 5608 5614 5621 5627 5634 5640 5647 5652 5658 5664 5670 5675 5682 5688 5695 5703 5710 5718 5724 5729 5735 5740 5745 5748 5751 5755 5759 5763 5767 5770 5773 5777 5785 5790 5793 5797 5800 5801 5804 5808 5812 5815 5818 5821 5823 5826 5829 5830 5832 5833 5835 5837 5838 5839 5842 5845 5847 5849 5850 5850 5851 5854 5856 5856 5857 5860 5861 5862 5863 5863 5864 5865 5866 5867 5868 5869 5869 5870 5871 5872 5872 5873 5874 5876 5877 5877 5877
5592 5599 5605 5612 5618 5625 5632 5639 5645 5651 5657 5664 5669 5675 5682 5689 5696 5704 5712 5719 5724 5730 5735 5739 5743 5747 5750 5755 5758 5761 5765 5767 5774 5784 5787 5790 5794 5796 5798 5802 5805 5808 5812 5815 5818 5821 5823 5826 5827 5828 5830 5832 5834 5836 5837 5839 5842 5844 5846 5846 5846 5850 5853 5854 5855 5857 5858 5859 5861 5861 5862 5863 5864 5865 5866 5867 5867 5868 5869 5870 5870 5871 5872 5873 5874 5875 5876 5876
5582 5589 5596 5602 5609 5616 5623 5631 5638 5644 5650 5657 5663 5669 5676 5683 5690 5697 5706 5713 5719 5726 5731 5734 5738 5743 5746 5749 5752 5756 5759 5762 5773 5781 5783 5788 5791 5793 5796 5799 5803 5805 5809 5812 5815 5818 5820 5823 5824 5825 5827 5829 5832 5834 5836 5838 5840 5842 5843 5843 5846 5850 5851 5853 5854 5855 5856 5858 5859 5860 5861 5862 5863 5863 5865 5866 5866 5867 5868 5869 5869 5870 5871 5872 5873 5874 5875 5876
5573 5579 5586 5593 5600 5607 5615 5623 5630 5636 5643 5650 5657 5663 5670 5677 5684 5691 5699 5707 5714 5720 5725 5730 5734 5738 5742 5745 5747 5750 5753 5761 5773 5777 5780 5786 5787 5790 5793 5796 5801 5802 5805 5809 5811 5815 5817 5820 5821 5822 5825 5827 5830 5832 5835 5837 5839 5841 5841 5842 5845 5847 5849 5851 5853 5854 5855 5856 5857 5859 5859 5860 5861 5862 5864 5864 5865 5866 5867 5867 5868 5869 5870 5871 5872 5873 5874 5875
5563 5569 5577 5584 5591 5598 5606 5614 5621 5629 5635 5642 5650 5658 5664 5671 5678 5684 5693 5701 5707 5715 5721 5726 5730 5734 5737 5740 5742 5744 5751 5760 5770 5774 5778 5783 5784 5786 5790 5793 5797 5799 5802 5805 5808 5812 5815 5818 5819 5821 5823 5825 5828 5830 5833 5835 5836 5838 5839 5841 5843 5844 5847 5849 5851 5852 5853 5854 5855 5857 5858 5859 5859 5861 5862 5862 5864 5865 5866 5866 5867 5868 5869 5870 5871 5872 5873 5874
5554 5559 5566 5574 5581 5589 5597 5605 5613 5621 5627 5635 5644 5651 5659 5666 5673 5679 5687 5694 5702 5710 5716 5721 5726 5730 5732 5734 5737 5740 5749 5757 5765 5771 5775 5779 5781 5784 5787 5790 5793 5796 5799 5801 5805 5809 5812 5815 5817 5819 5821 5823 5826 5828 5831 5832 5833 5835 5836 5839 5840 5842 5845 5847 5849 5850 5851 5852 5853 5855 5856 5856 5858 5859 5860 5861 5863 5864 5864 5865 5865 5866 5867 5868 5869 5870 5872 5872
5545 5550 5555 5563 5572 5580 5588 5596 5604 5613 5621 5629 5636 5645 5653 5661 5668 5675 5682 5689 5697 5705 5712 5717 5722 5726 5726 5729 5732 5735 5746 5755 5761 5768 5771 5773 5778 5781 5784 5787 5790 5793 5795 5798 5801 5804 5808 5812 5814 5817 5819 5822 5824 5826 5828 5828 5829 5832 5834 5837 5838 5840 5842 5844 5846 5847 5849 5850 5851 5852 5853 5854 5856 5858 5859 5859 5862 5862 5862 5863 5863 5864 5865 5867 5868 5869 5870 5871
5535 5540 5545 5552 5562 5571 5579 5587 5596 5605 5614 5622 5630 5639 5647 5655 5663 5670 5677 5683 5690 5698 5706 5712 5716 5719 5721 5723 5725 5730 5744 5751 5756 5765 5768 5769 5774 5776 5780 5784 5787 5790 5792 5795 5798 5802 5806 5810 5812 5813 5816 5819 5821 5822 5824 5824 5826 5829 5832 5834 5835 5837 5839 5841 5843 5845 5846 5848 5849 5850 5851 5853 5855 5856 5858 5859 5860 5861 5860 5861 5862 5863 5864 5865 5866 5867 5868 5869
5525 5530 5535 5543 5552 5561 5571 5579 5588 5597 5607 5616 5624 5632 5642 5650 5658 5666 5672 5677 5685 5694 5701 5709 5712 5712 5715 5717 5720 5728 5739 5744 5750 5759 5763 5766 5770 5773 5777 5780 5783 5786 5789 5792 5796 5799 5802 5806 5809 5812 5815 5817 5818 5819 5821 5823 5824 5826 5828 5831 5832 5833 5836 5838 5840 5842 5843 5845 5847 5849 5850 5852 5853 5856 5857 5857 5858 5859 5859 5860 5860 5861 5863 5864 5865 5866 5866 5867
5515 5520 5526 5533 5543 5553 5563 5571 5580 5590 5600 5609 5618 5626 5635 5644 5652 5661 5667 5673 5681 5689 5697 5705 5708 5709 5711 5711 5716 5724 5733 5739 5745 5751 5757 5761 5764 5769 5773 5776 5779 5782 5786 5789 5792 5795 5798 5803 5807 5809 5811 5813 5815 5816 5818 5821 5822 5824 5825 5827 5829 5830 5833 5836 5837 5839 5841 5844 5846 5847 5848 5851 5853 5855 5854 5852 5855 5857 5858 5858 5859 5860 5861 5862 5863 5864 5865 5866
5507 5512 5517 5524 5534 5545 5556 5565 5573 5583 5593 5603 5612 5621 5630 5639 5648 5656 5663 5670 5676 5684 5691 5696 5701 5705 5704 5706 5715 5721 5727 5733 5738 5744 5752 5755 5758 5762 5767 5771 5775 5778 5782 5785 5787 5791 5794 5798 5802 5805 5806 5808 5811 5812 5815 5818 5820 5822 5823 5824 5826 5827 5830 5833 5833 5836 5840 5842 5845 5845 5847 5851 5852 5851 5849 5849 5853 5856 5856 5857 5857 5859 5859 5861 5861 5862 5863 5864
5500 5504 5509 5517 5526 5537 5549 5558 5566 5576 5587 5597 5606 5616 5625 5634 5643 5650 5658 5666 5673 5680 5685 5689 5695 5697 5697 5705 5714 5716 5721 5727 5731 5738 5745 5750 5753 5757 5762 5767 5770 5773 5777 5780 5783 5786 5789 5793 5797 5801 5802 5804 5807 5809 5811 5815 5817 5819 5820 5821 5823 5824 5827 5829 5831 5835 5838 5839 5843 5843 5845 5850 5849 5847 5848 5849 5852 5854 5854 5855 5855 5856 5857 5858 5859 5860 5861 5862
5494 5498 5504 5511 5521 5531 5542 5552 5561 5570 5580 5590 5601 5611 5621 5629 5637 5645 5653 5661 5668 5674 5680 5685 5688 5690 5693 5700 5706 5710 5714 5719 5725 5733 5739 5745 5750 5754 5758 5762 5765 5769 5773 5777 5780 5782 5785 5788 5791 5795 5797 5800 5803 5804 5807 5811 5813 5815 5817 5818 5819 5821 5823 5827 5830 5833 5834 5836 5840 5840 5843 5848 5846 5845 5848 5848 5850 5851 5852 5852 5852 5854 5855 5856 5857 5858 5859 5861
5490 5494 5500 5508 5518 5529 5538 5546 5555 5564 5575 5585 5595 5606 5615 5624 5633 5641 5648 5656 5664 5670 5675 5679 5682 5686 5688 5692 5701 5704 5705 5713 5722 5728 5734 5740 5745 5749 5754 5758 5762 5765 5769 5773 5776 5778 5781 5783 5786 5790 5793 5796 5799 5801 5803 5806 5809 5811 5814 5815 5816 5818 5820 5824 5828 5830 5831 5833 5836 5837 5841 5846 5844 5844 5846 5846 5848 5849 5849 5850 5850 5852 5853 5854 5855 5856 5857 5859
5488 5491 5497 5505 5515 5526 5534 5542 5550 5559 5569 5579 5590 5600 5610 5620 5629 5636 5643 5651 5659 5666 5670 5673 5680 5686 5684 5685 5693 5694 5699 5712 5718 5722 5729 5736 5740 5743 5748 5752 5756 5760 5764 5768 5771 5774 5777 5779 5783 5787 5790 5793 5796 5798 5799 5801 5805 5807 5810 5811 5813 5815 5818 5823 5826 5827 5828 5830 5832 5834 5837 5842 5842 5843 5844 5844 5846 5847 5848 5848 5848 5850 5851 5852 5853 5854 5855 5857
5487 5490 5497 5503 5512 5522 5530 5537 5546 5555 5564 5574 5584 5595 5605 5615 5623 5628 5633 5642 5652 5659 5664 5668 5673 5674 5670 5674 5685 5690 5699 5710 5713 5718 5724 5730 5735 5738 5742 5746 5750 5754 5758 5762 5766 5769 5772 5776 5780 5782 5786 5790 5793 5793 5793 5797 5801 5803 5807 5810 5812 5816 5818 5820 5823 5824 5826 5827 5829 5830 5834 5839 5839 5840 5841 5841 5843 5844 5846 5847 5847 5849 5850 5851 5852 5852 5853 5855
5486 5490 5495 5501 5508 5517 5525 5533 5543 5551 5559 5568 5578 5588 5598 5606 5612 5617 5624 5633 5640 5645 5649 5653 5656 5656 5659 5673 5688 5693 5697 5704 5709 5711 5716 5723 5728 5731 5735 5739 5744 5748 5751 5755 5760 5764 5768 5772 5773 5776 5781 5786 5789 5790 5792 5797 5799 5801 5806 5810 5811 5814 5816 5817 5820 5821 5823 5824 5826 5827 5831 5836 5837 5837 5838 5838 5840 5842 5843 5845 5846 5847 5849 5850 5851 5851 5852 5853
5484 5489 5493 5498 5505 5513 5520 5529 5540 5547 5553 5561 5571 5579 5585 5591 5596 5602 5612 5621 5628 5634 5639 5644 5649 5652 5659 5672 5681 5685 5689 5697 5702 5704 5710 5719 5722 5726 5729 5732 5737 5740 5744 5751 5756 5761 5764 5766 5768 5775 5781 5785 5787 5789 5791 5795 5795 5798 5804 5806 5807 5810 5813 5814 5816 5818 5820 5821 5823 5825 5828 5832 5835 5835 5835 5835 5837 5840 5841 5843 5844 5845 5847 5848 5849 5850 5851 5852
5482 5487 5492 5498 5504 5511 5517 5525 5535 5541 5548 5557 5565 5571 5579 5585 5591 5599 5609 5617 5626 5634 5637 5642 5649 5651 5656 5663 5670 5678 5683 5689 5696 5700 5707 5712 5715 5720 5722 5726 5730 5732 5740 5746 5750 5755 5758 5760 5767 5775 5780 5783 5785 5786 5789 5791 5792 5797 5802 5803 5804 5807 5809 5812 5814 5816 5816 5817 5821 5823 5823 5828 5832 5833 5833 5833 5834 5837 5839 5841 5843 5843 5844 5845 5847 5849 5849 5850
5480 5486 5491 5497 5503 5509 5515 5522 5530 5536 5543 5552 5558 5567 5578 5586 5598 5611 5619 5622 5628 5632 5634 5641 5646 5649 5657 5665 5669 5674 5676 5681 5689 5693 5696 5702 5708 5713 5717 5722 5725 5731 5739 5740 5741 5746 5750 5757 5767 5772 5775 5779 5780 5782 5785 5788 5789 5794 5798 5798 5801 5803 5805 5810 5812 5813 5813 5813 5817 5819 5819 5824 5828 5829 5831 5830 5831 5835 5837 5838 5840 5840 5841 5842 5844 5846 5847 5848
5478 5483 5489 5495 5500 5506 5512 5519 5527 5533 5540 5548 5557 5566 5575 5584 5597 5606 5611 5616 5623 5626 5630 5637 5642 5646 5655 5661 5665 5667 5669 5675 5682 5685 5688 5695 5703 5709 5714 5718 5722 5729 5731 5731 5737 5743 5747 5756 5763 5766 5769 5772 5774 5777 5781 5784 5785 5790 5793 5795 5797 5800 5803 5808 5809 5810 5811 5810 5813 5815 5816 5820 5825 5826 5828 5828 5828 5832 5835 5835 5836 5837 5838 5840 5842 5843 5844 5845
5476 5482 5487 5493 5498 5504 5510 5517 5524 5530 5537 5547 5555 5563 5571 5582 5590 5594 5598 5605 5610 5615 5625 5632 5638 5642 5648 5656 5661 5662 5666 5672 5679 5684 5687 5693 5699 5704 5709 5715 5720 5723 5724 5730 5739 5744 5749 5756 5759 5760 5763 5766 5770 5773 5775 5779 5782 5785 5790 5792 5795 5797 5801 5805 5806 5807 5809 5808 5809 5811 5812 5815 5822 5823 5825 5827 5826 5829 5832 5832 5834 5835 5836 5838 5839 5840 5842 5843
5475 5480 5486 5491 5496 5503 5509 5515 5521 5527 5535 5544 5551 5558 5567 5577 5584 5589 5595 5600 5603 5610 5620 5626 5632 5638 5644 5651 5653 5657 5664 5668 5674 5681 5686 5693 5697 5700 5706 5711 5713 5716 5722 5731 5737 5740 5746 5752 5754 5757 5760 5762 5765 5768 5772 5776 5779 5782 5786 5789 5791 5794 5799 5802 5802 5803 5806 5805 5806 5808 5809 5811 5818 5820 5822 5824 5823 5825 5829 5830 5831 5832 5833 5834 5836 5838 5840 5841
5474 5479 5484 5490 5495 5501 5507 5513 5519 5525 5532 5540 5547 5555 5563 5572 5580 5584 5590 5595 5598 5604 5611 5618 5626 5632 5637 5642 5646 5653 5657 5659 5667 5675 5679 5687 5693 5698 5703 5703 5706 5713 5722 5729 5732 5735 5739 5745 5749 5753 5757 5759 5761 5766 5770 5774 5776 5778 5782 5785 5788 5791 5796 5798 5798 5799 5802 5802 5803 5807 5807 5807 5813 5818 5819 5821 5821 5822 5825 5827 5828 5829 5830 5831 5833 5835 5837 5837
5472 5477 5482 5487 5492 5497 5503 5509 5516 5521 5528 5536 5545 5553 5559 5568 5575 5579 5585 5587 5588 5596 5604 5611 5618 5625 5631 5638 5644 5647 5645 5650 5662 5667 5671 5680 5685 5692 5696 5697 5704 5712 5717 5721 5722 5726 5734 5740 5743 5748 5753 5754 5758 5764 5768 5770 5773 5774 5778 5782 5784 5789 5792 5793 5794 5795 5797 5798 5800 5805 5805 5802 5808 5815 5816 5817 5819 5819 5821 5824 5825 5826 5827 5829 5830 5832 5833 5834
5470 5475 5479 5484 5489 5495 5501 5507 5512 5519 5526 5534 5543 5549 5555 5563 5568 5572 5575 5574 5578 5590 5598 5605 5615 5622 5629 5635 5639 5639 5643 5652 5656 5658 5667 5676 5679 5684 5689 5695 5705 5711 5713 5714 5716 5723 5732 5735 5738 5744 5748 5748 5756 5763 5763 5766 5770 5770 5774 5779 5782 5785 5788 5789 5790 5791 5793 5794 5796 5801 5802 5800 5804 5812 5815 5814 5817 5818 5819 5821 5822 5823 5825 5826 5828 5829 5830 5832
5468 5473 5478 5483 5488 5493 5499 5504 5509 5516 5523 5530 5538 5543 5550 5559 5563 5566 5564 5563 5574 5586 5593 5603 5613 5618 5624 5630 5633 5635 5642 5649 5652 5658 5667 5670 5673 5678 5683 5693 5704 5708 5709 5712 5717 5723 5727 5729 5734 5739 5742 5746 5754 5758 5759 5764 5767 5766 5772 5777 5779 5781 5784 5786 5787 5787 5789 5790 5793 5798 5799 5797 5799 5807 5813 5812 5814 5816 5817 5818 5819 5820 5822 5823 5824 5826 5827 5829
5468 5472 5477 5483 5487 5492 5496 5501 5507 5513 5520 5526 5532 5538 5546 5553 5557 5557 5554 5557 5571 5581 5589 5599 5606 5611 5619 5625 5628 5631 5637 5642 5648 5657 5660 5660 5667 5674 5681 5693 5699 5699 5702 5706 5712 5718 5723 5727 5729 5732 5738 5745 5750 5753 5756 5761 5761 5763 5769 5773 5775 5777 5780 5782 5782 5784 5785 5786 5789 5794 5796 5795 5795 5802 5809 5811 5812 5814 5814 5815 5816 5817 5818 5819 5820 5822 5824 5825
5467 5472 5477 5482 5486 5491 5495 5500 5505 5511 5517 5522 5527 5534 5541 5546 5549 5549 5548 5557 5569 5576 5584 5593 5600 5608 5615 5619 5623 5626 5632 5637 5643 5648 5650 5654 5662 5665 5673 5681 5685 5689 5694 5698 5703 5710 5717 5720 5722 5729 5737 5741 5743 5747 5752 5755 5757 5760 5765 5769 5772 5774 5776 5777 5778 5779 5781 5782 5786 5790 5792 5792 5792 5797 5806 5810 5811 5812 5812 5812 5812 5813 5815 5816 5816 5818 5820 5822
5466 5471 5476 5480 5485 5489 5494 5499 5504 5510 5514 5519 5524 5530 5535 5538 5539 5541 5548 5558 5566 5570 5578 5587 5596 5604 5610 5615 5620 5623 5628 5632 5637 5642 5645 5651 5656 5658 5665 5669 5671 5677 5683 5690 5699 5706 5710 5714 5720 5728 5732 5734 5737 5742 5746 5748 5753 5757 5761 5765 5768 5769 5771 5772 5774 5775 5777 5779 5781 5785 5789 5790 5791 5795 5802 5808 5809 5808 5809 5809 5809 5810 5811 5812 5814 5814 5816 5818
5466 5471 5475 5480 5484 5488 5492 5497 5502 5507 5512 5516 5520 5525 5529 5529 5529 5536 5546 5553 5558 5566 5577 5585 5594 5603 5608 5612 5614 5618 5625 5629 5633 5639 5644 5650 5653 5657 5664 5668 5670 5675 5681 5689 5697 5701 5705 5708 5713 5720 5724 5728 5733 5738 5741 5745 5751 5754 5757 5761 5762 5762 5764 5766 5769 5771 5774 5776 5777 5781 5786 5788 5791 5792 5796 5803 5805 5805 5806 5806 5805 5806 5806 5808 5809 5811 5812 5814
5465 5470 5474 5479 5483 5486 5491 5495 5499 5504 5509 5513 5517 5520 5522 5523 5528 5538 5545 5549 5556 5565 5574 5582 5591 5598 5603 5606 5610 5615 5620 5624 5629 5635 5640 5644 5646 5651 5657 5661 5668 5676 5682 5688 5690 5694 5697 5698 5704 5713 5719 5726 5731 5735 5740 5745 5750 5751 5753 5756 5756 5756 5761 5764 5766 5769 5772 5774 5775 5777 5781 5785 5788 5789 5792 5798 5801 5801 5802 5803 5803 5803 5803 5804 5805 5807 5809 5810
5464 5468 5473 5477 5481 5485 5489 5493 5497 5502 5506 5510 5513 5515 5516 5521 5530 5539 5544 5551 5559 5565 5571 5579 5585 5590 5595 5601 5608 5612 5616 5621 5625 5630 5633 5636 5639 5644 5650 5655 5663 5670 5675 5681 5686 5692 5695 5698 5706 5715 5718 5724 5728 5729 5734 5738 5740 5742 5745 5747 5749 5754 5759 5760 5762 5765 5768 5769 5770 5772 5776 5781 5784 5785 5789 5793 5796 5797 5798 5799 5800 5800 5800 5801 5801 5803 5805 5806
5463 5467 5472 5476 5480 5484 5488 5492 5495 5499 5503 5506 5509 5510 5515 5524 5531 5536 5543 5553 5560 5564 5569 5574 5578 5583 5589 5596 5602 5607 5612 5618 5622 5625 5628 5632 5638 5642 5647 5654 5661 5667 5672 5678 5684 5690 5695 5700 5708 5714 5716 5721 5722 5723 5729 5733 5733 5734 5736 5739 5746 5751 5753 5754 5757 5760 5762 5763 5765 5769 5773 5778 5780 5781 5785 5789 5791 5794 5795 5795 5797 5797 5797 5798 5799 5799 5800 5801
5461 5466 5470 5475 5478 5482 5486 5490 5493 5497 5500 5502 5505 5510 5517 5524 5529 5534 5542 5552 5559 5563 5566 5569 5572 5578 5585 5591 5597 5603 5608 5613 5617 5620 5623 5628 5633 5637 5644 5652 5659 5665 5671 5678 5683 5687 5692 5697 5702 5706 5710 5714 5716 5719 5726 5728 5728 5729 5732 5739 5746 5747 5747 5751 5753 5756 5757 5758 5762 5767 5769 5773 5777 5779 5783 5786 5788 5789 5791 5792 5793 5794 5795 5795 5796 5796 5796 5797
5459 5464 5469 5473 5476 5480 5484 5487 5490 5494 5497 5500 5505 5511 5516 5521 5526 5532 5539 5548 5555 5558 5561 5565 5570 5576 5583 5590 5596 5600 5603 5607 5612 5615 5619 5623 5627 5633 5641 5649 5657 5664 5670 5676 5680 5683 5689 5693 5696 5699 5702 5705 5708 5711 5715 5717 5719 5725 5731 5738 5741 5740 5742 5746 5748 5750 5752 5754 5758 5763 5765 5769 5774 5778 5780 5782 5784 5784 5786 5788 5790 5791 5792 5792 5793 5793 5793 5793
5458 5463 5467 5471 5474 5478 5481 5485 5488 5491 5493 5498 5504 5510 5514 5519 5525 5529 5535 5544 5550 5553 5557 5563 5568 5574 5581 5588 5594 5597 5600 5604 5608 5612 5615 5619 5624 5631 5640 5647 5654 5661 5666 5671 5675 5679 5685 5687 5691 5694 5698 5700 5700 5702 5706 5710 5715 5722 5726 5730 5732 5734 5737 5740 5743 5746 5748 5750 5754 5757 5760 5765 5772 5776 5777 5778 5780 5781 5781 5783 5785 5786 5787 5788 5789 5789 5789 5790
5456 5461 5465 5468 5472 5475 5479 5482 5485 5488 5492 5499 5506 5511 5515 5519 5523 5526 5531 5539 5545 5549 5553 5559 5564 5569 5577 5585 5590 5594 5598 5601 5605 5609 5613 5619 5625 5631 5637 5643 5650 5656 5662 5666 5670 5675 5679 5681 5686 5689 5691 5693 5694 5698 5706 5710 5714 5720 5723 5725 5727 5728 5731 5734 5737 5741 5742 5744 5749 5751 5755 5762 5769 5772 5774 5774 5775 5776 5776 5777 5779 5781 5783 5784 5785 5786 5786 5787
5455 5459 5462 5466 5470 5473 5477 5480 5484 5488 5494 5500 5505 5509 5512 5516 5520 5523 5528 5534 5540 5545 5549 5554 5560 5566 5573 5581 5587 5591 5595 5597 5602 5606 5611 5617 5622 5627 5633 5639 5645 5651 5655 5659 5663 5668 5672 5677 5681 5683 5685 5689 5693 5699 5705 5708 5712 5717 5719 5721 5724 5725 5728 5730 5733 5738 5741 5743 5748 5750 5752 5760 5766 5768 5771 5771 5770 5771 5772 5773 5773 5775 5776 5778 5780 5781 5783 5783
5452 5456 5460 5464 5468 5472 5476 5479 5484 5488 5493 5498 5503 5506 5509 5513 5517 5521 5524 5530 5536 5542 5546 5552 5558 5562 5569 5577 5582 5587 5591 5594 5598 5602 5607 5614 5620 5626 5632 5637 5642 5647 5652 5656 5660 5665 5670 5674 5677 5679 5682 5686 5689 5695 5699 5703 5707 5710 5710 5713 5717 5719 5724 5728 5731 5736 5739 5741 5745 5745 5747 5756 5761 5763 5766 5768 5767 5767 5768 5769 5769 5769 5770 5772 5773 5776 5777 5778
5449 5454 5458 5461 5466 5470 5473 5477 5481 5485 5491 5496 5500 5502 5505 5509 5512 5516 5520 5525 5531 5537 5543 5548 5553 5559 5566 5573 5577 5582 5586 5590 5595 5601 5607 5614 5619 5624 5629 5634 5639 5643 5647 5651 5655 5661 5667 5669 5670 5674 5677 5680 5684 5689 5694 5698 5700 5701 5704 5710 5713 5716 5721 5724 5727 5730 5732 5735 5740 5739 5742 5752 5757 5759 5763 5764 5763 5763 5763 5764 5764 5764 5765 5767 5768 5770 5771 5772
5446 5451 5456 5460 5464 5468 5471 5476 5481 5486 5492 5495 5496 5499 5501 5504 5507 5512 5517 5522 5527 5534 5539 5544 5550 5557 5563 5568 5573 5578 5581 5586 5592 5599 5604 5608 5613 5619 5624 5630 5634 5637 5641 5646 5653 5660 5663 5662 5665 5669 5671 5673 5676 5681 5685 5689 5693 5698 5705 5709 5711 5714 5716 5717 5721 5723 5723 5729 5734 5732 5738 5749 5752 5755 5760 5759 5757 5758 5757 5757 5759 5759 5761 5763 5764 5765 5765 5766
5445 5450 5454 5457 5461 5465 5469 5474 5479 5483 5487 5490 5493 5496 5498 5502 5505 5510 5515 5521 5527 5531 5536 5542 5548 5554 5560 5565 5570 5574 5577 5581 5588 5594 5599 5603 5608 5614 5619 5625 5630 5635 5641 5647 5652 5656 5657 5658 5660 5661 5661 5663 5668 5674 5680 5687 5693 5697 5700 5702 5703 5706 5707 5710 5714 5713 5715 5725 5728 5726 5735 5746 5747 5748 5753 5754 5752 5752 5751 5751 5752 5753 5755 5757 5759 5760 5760 5761
5443 5448 5452 5455 5458 5462 5466 5469 5473 5477 5481 5485 5489 5492 5495 5499 5504 5508 5513 5518 5523 5528 5532 5538 5543 5548 5555 5562 5565 5569 5573 5577 5583 5589 5595 5600 5605 5611 5617 5622 5628 5632 5637 5641 5645 5649 5652 5654 5656 5658 5662 5666 5670 5676 5683 5688 5689 5691 5692 5694 5695 5696 5699 5703 5704 5705 5714 5722 5719 5721 5733 5741 5741 5744 5747 5748 5747 5746 5746 5747 5747 5748 5749 5750 5752 5753 5754 5755
5442 5446 5450 5453 5456 5459 5462 5466 5471 5476 5480 5483 5487 5490 5494 5498 5501 5505 5508 5512 5518 5524 5528 5532 5536 5542 5550 5558 5561 5566 5570 5575 5579 5586 5592 5597 5602 5609 5614 5618 5623 5627 5631 5636 5640 5644 5646 5648 5653 5659 5663 5666 5670 5676 5682 5685 5686 5689 5691 5692 5694 5696 5698 5699 5699 5706 5716 5715 5711 5722 5733 5735 5739 5742 5740 5740 5741 5741 5742 5742 5741 5742 5743 5743 5744 5746 5747 5749
5440 5444 5447 5449 5453 5457 5461 5466 5471 5475 5477 5480 5484 5489 5492 5495 5498 5501 5505 5509 5515 5520 5522 5526 5531 5538 5548 5556 5559 5563 5568 5571 5576 5581 5588 5593 5598 5604 5609 5613 5617 5621 5626 5631 5634 5637 5641 5645 5651 5655 5657 5661 5667 5671 5674 5678 5681 5685 5687 5689 5692 5694 5695 5696 5700 5708 5712 5707 5711 5725 5729 5728 5737 5737 5732 5735 5736 5735 5737 5736 5735 5736 5736 5737 5738 5739 5740 5742
5438 5441 5443 5446 5450 5455 5458 5462 5465 5468 5471 5474 5479 5484 5488 5491 5494 5499 5504 5506 5510 5515 5518 5523 5530 5539 5548 5554 5556 5559 5565 5569 5574 5579 5585 5591 5595 5599 5604 5607 5611 5616 5622 5627 5630 5634 5639 5643 5646 5650 5654 5658 5661 5664 5668 5672 5674 5676 5679 5682 5685 5687 5688 5691 5697 5704 5706 5703 5711 5721 5720 5722 5733 5732 5729 5732 5730 5728 5731 5730 5729 5730 5730 5731 5732 5732 5734 5737
5434 5437 5439 5442 5447 5451 5454 5457 5459 5463 5467 5470 5474 5480 5484 5487 5492 5496 5500 5502 5507 5512 5516 5522 5532 5540 5547 5551 5553 5558 5566 5571 5575 5579 5584 5588 5591 5596 5601 5604 5609 5614 5619 5624 5628 5631 5635 5638 5641 5647 5650 5652 5656 5660 5663 5665 5667 5670 5673 5676 5677 5680 5683 5687 5693 5699 5698 5699 5709 5715 5711 5718 5729 5727 5725 5726 5723 5722 5725 5724 5723 5724 5724 5725 5726 5727 5730 5731
5430 5432 5435 5438 5442 5446 5450 5453 5456 5459 5463 5465 5471 5477 5481 5485 5491 5494 5496 5500 5505 5510 5515 5524 5535 5541 5544 5547 5552 5561 5568 5571 5573 5577 5580 5583 5588 5594 5598 5601 5606 5610 5614 5620 5623 5626 5629 5632 5636 5640 5641 5645 5652 5655 5656 5659 5662 5662 5664 5667 5672 5676 5681 5686 5691 5694 5693 5697 5707 5707 5706 5716 5724 5720 5718 5720 5719 5719 5720 5718 5716 5716 5717 5720 5722 5724 5726 5726
5425 5427 5430 5434 5438 5442 5446 5450 5452 5455 5459 5463 5469 5475 5478 5484 5490 5491 5492 5497 5502 5507 5515 5524 5531 5535 5538 5544 5553 5561 5565 5567 5570 5573 5574 5578 5582 5587 5592 5596 5601 5605 5611 5616 5619 5621 5624 5626 5630 5633 5635 5640 5645 5647 5650 5653 5651 5650 5657 5666 5671 5675 5680 5683 5685 5688 5690 5695 5698 5699 5704 5713 5714 5711 5713 5715 5714 5714 5714 5711 5710 5710 5712 5715 5718 5721 5722 5721